CES582 CYVR-ZSPD

Flight info

Callsign CES582
Flight time N/A
Altitude 36000
Route UQQ DCT KATCH DCT HMPTN DCT GRIZZ DCT CJAYY DCT 58N160W DCT CHUUK DCT OBOYD DCT NATES DCT NIKLL DCT NYMPH DCT NUZAN DCT NRKEY DCT NIPPI R220 BEKEN Y512 GTC Y142 SAMON Y14 DGC Y28 ISAKY Y592 ONIKU A593 LAMEN/K0883F360 A593 DUMET
Aircraft A359/H-SDE2E3FGHIJ1J2J3J4J5LM1ORWXYZ/LB1D1

Departure

Time N/A
Airport Vancouver International Airport (CYVR)

Arrival

Time 2026-05-08 05:19
Airport Shanghai Pudong International Airport (ZSPD)
Time Latitude Longitude Altitude Speed Heading
2026-05-08 02:57 37.23012 137.07293 39801 ft 401 kts 244°
2026-05-08 02:58 37.20667 137.00938 39799 ft 401 kts 244°
2026-05-08 02:58 37.18317 136.94584 39800 ft 401 kts 244°
2026-05-08 02:59 37.15971 136.88253 39800 ft 401 kts 244°
2026-05-08 02:59 37.13624 136.81933 39800 ft 400 kts 244°
2026-05-08 03:00 37.11268 136.75605 39806 ft 400 kts 244°
2026-05-08 03:00 37.08912 136.69291 39806 ft 400 kts 244°
2026-05-08 03:01 37.06552 136.62974 39805 ft 400 kts 244°
2026-05-08 03:01 37.04191 136.56660 39808 ft 400 kts 244°
2026-05-08 03:02 37.01829 136.50358 39805 ft 400 kts 244°
2026-05-08 03:02 36.99461 136.44058 39806 ft 400 kts 244°
2026-05-08 03:03 36.97093 136.37769 39809 ft 399 kts 244°
2026-05-08 03:03 36.94721 136.31484 39809 ft 399 kts 244°
2026-05-08 03:04 36.92365 136.25253 39808 ft 399 kts 244°
2026-05-08 03:04 36.89989 136.18981 39806 ft 399 kts 244°
2026-05-08 03:05 36.87609 136.12714 39810 ft 399 kts 244°
2026-05-08 03:05 36.85229 136.06455 39809 ft 399 kts 244°
2026-05-08 03:06 36.82842 136.00195 39809 ft 399 kts 244°
2026-05-08 03:06 36.80459 135.93955 39812 ft 398 kts 244°
2026-05-08 03:07 36.78076 135.87726 39810 ft 398 kts 244°
2026-05-08 03:07 36.75686 135.81494 39812 ft 398 kts 244°
2026-05-08 03:08 36.73701 135.76327 39813 ft 397 kts 244°
2026-05-08 03:08 36.71313 135.70121 39817 ft 397 kts 244°
2026-05-08 03:09 36.68924 135.63925 39815 ft 397 kts 244°
2026-05-08 03:09 36.66532 135.57734 39818 ft 396 kts 244°
2026-05-08 03:10 36.64143 135.51561 39819 ft 396 kts 244°
2026-05-08 03:10 36.61744 135.45375 39820 ft 396 kts 244°
2026-05-08 03:11 36.59350 135.39217 39825 ft 396 kts 244°
2026-05-08 03:11 36.56960 135.33078 39824 ft 396 kts 244°
2026-05-08 03:12 36.54558 135.26920 39826 ft 396 kts 244°
2026-05-08 03:12 36.52155 135.20774 39824 ft 396 kts 244°
2026-05-08 03:13 36.49747 135.14626 39826 ft 395 kts 244°
2026-05-08 03:13 36.47335 135.08478 39827 ft 395 kts 244°
2026-05-08 03:14 36.44921 135.02338 39830 ft 395 kts 244°
2026-05-08 03:14 36.42503 134.96198 39833 ft 395 kts 244°
2026-05-08 03:15 36.40088 134.90081 39836 ft 395 kts 244°
2026-05-08 03:15 36.37684 134.84001 39835 ft 395 kts 244°
2026-05-08 03:16 36.35264 134.77891 39838 ft 394 kts 244°
2026-05-08 03:16 36.32842 134.71790 39840 ft 394 kts 244°
2026-05-08 03:17 36.30414 134.65685 39846 ft 394 kts 244°
2026-05-08 03:17 36.27989 134.59597 39850 ft 394 kts 244°
2026-05-08 03:18 36.25560 134.53513 39850 ft 394 kts 244°
2026-05-08 03:18 36.22917 134.47575 39839 ft 394 kts 240°
2026-05-08 03:19 36.20071 134.41779 39852 ft 394 kts 240°
2026-05-08 03:19 36.17194 134.36004 39854 ft 394 kts 239°
2026-05-08 03:20 36.14319 134.30238 39856 ft 394 kts 240°
2026-05-08 03:20 36.11443 134.24469 39854 ft 394 kts 240°
2026-05-08 03:21 36.08568 134.18706 39856 ft 394 kts 240°
2026-05-08 03:21 36.05693 134.12953 39863 ft 393 kts 240°
2026-05-08 03:22 36.02829 134.07232 39866 ft 393 kts 240°
2026-05-08 03:22 35.99949 134.01488 39866 ft 393 kts 240°
2026-05-08 03:23 35.97062 133.95740 39872 ft 393 kts 240°
2026-05-08 03:23 35.94175 133.90011 39869 ft 393 kts 240°
2026-05-08 03:24 35.91287 133.84279 39872 ft 393 kts 240°
2026-05-08 03:24 35.88398 133.78549 39874 ft 394 kts 240°
2026-05-08 03:25 35.85502 133.72820 39877 ft 394 kts 240°
2026-05-08 03:25 35.82601 133.67093 39882 ft 394 kts 240°
2026-05-08 03:26 35.79695 133.61364 39884 ft 394 kts 240°
2026-05-08 03:26 35.76784 133.55635 39883 ft 394 kts 240°
2026-05-08 03:27 35.73871 133.49911 39885 ft 395 kts 240°
2026-05-08 03:27 35.70969 133.44218 39893 ft 395 kts 240°
2026-05-08 03:28 35.68049 133.38501 39891 ft 395 kts 240°
2026-05-08 03:28 35.65123 133.32780 39887 ft 395 kts 240°
2026-05-08 03:29 35.62201 133.27078 39884 ft 395 kts 240°
2026-05-08 03:29 35.59268 133.21363 39883 ft 395 kts 240°
2026-05-08 03:30 35.54876 133.12822 39885 ft 395 kts 240°
2026-05-08 03:31 35.48417 133.01868 39888 ft 396 kts 236°
2026-05-08 03:32 35.43367 132.93852 39882 ft 396 kts 236°
2026-05-08 03:32 35.39990 132.88495 39884 ft 397 kts 236°
2026-05-08 03:33 35.36617 132.83142 39885 ft 397 kts 236°
2026-05-08 03:33 35.33239 132.77787 39888 ft 397 kts 236°
2026-05-08 03:34 35.29881 132.72474 39894 ft 397 kts 236°
2026-05-08 03:34 35.26481 132.67111 39904 ft 397 kts 236°
2026-05-08 03:35 35.23129 132.61822 39913 ft 397 kts 236°
2026-05-08 03:35 35.19740 132.56480 39919 ft 397 kts 236°
2026-05-08 03:36 35.16356 132.51158 39937 ft 397 kts 236°
2026-05-08 03:36 35.12987 132.45867 39934 ft 397 kts 236°
2026-05-08 03:37 35.09566 132.40506 39943 ft 397 kts 236°
2026-05-08 03:37 35.06199 132.35237 39939 ft 397 kts 236°
2026-05-08 03:38 35.02797 132.29918 39949 ft 397 kts 236°
2026-05-08 03:38 34.99399 132.24614 39943 ft 397 kts 236°
2026-05-08 03:39 34.95995 132.19308 39951 ft 397 kts 236°
2026-05-08 03:39 34.92583 132.14001 39950 ft 397 kts 236°
2026-05-08 03:40 34.89170 132.08698 39954 ft 398 kts 236°
2026-05-08 03:40 34.85750 132.03393 39957 ft 398 kts 236°
2026-05-08 03:41 34.82326 131.98087 39964 ft 398 kts 236°
2026-05-08 03:41 34.78895 131.92786 39960 ft 398 kts 236°
2026-05-08 03:42 34.75463 131.87493 39958 ft 398 kts 236°
2026-05-08 03:42 34.72032 131.82209 39956 ft 398 kts 236°
2026-05-08 03:43 34.68596 131.76923 39970 ft 398 kts 236°
2026-05-08 03:43 34.65155 131.71638 39960 ft 399 kts 236°
2026-05-08 03:44 34.61743 131.66401 39969 ft 398 kts 236°
2026-05-08 03:44 34.58320 131.61164 39969 ft 398 kts 236°
2026-05-08 03:45 34.54859 131.55876 39961 ft 398 kts 236°
2026-05-08 03:45 34.51412 131.50619 39962 ft 398 kts 236°
2026-05-08 03:46 34.47964 131.45361 39961 ft 399 kts 236°
2026-05-08 03:46 34.44510 131.40102 39962 ft 398 kts 236°
2026-05-08 03:47 34.41052 131.34850 39963 ft 398 kts 237°
2026-05-08 03:47 34.37600 131.29605 39964 ft 398 kts 237°
2026-05-08 03:48 34.34145 131.24370 39966 ft 398 kts 237°
2026-05-08 03:48 34.30682 131.19133 39969 ft 398 kts 237°
2026-05-08 03:49 34.27228 131.13917 39966 ft 398 kts 237°
2026-05-08 03:49 34.23761 131.08687 39969 ft 399 kts 237°
2026-05-08 03:50 34.20292 131.03464 39970 ft 399 kts 237°
2026-05-08 03:50 34.16552 130.98517 39966 ft 403 kts 232°
2026-05-08 03:51 34.12620 130.93672 39966 ft 403 kts 232°
2026-05-08 03:51 34.08678 130.88863 39960 ft 403 kts 232°
2026-05-08 03:52 34.04734 130.84051 39958 ft 403 kts 232°
2026-05-08 03:52 34.00793 130.79237 39952 ft 404 kts 232°
2026-05-08 03:53 33.96843 130.74417 39962 ft 404 kts 232°
2026-05-08 03:53 33.92893 130.69604 39972 ft 404 kts 232°
2026-05-08 03:54 33.88941 130.64796 39977 ft 404 kts 232°
2026-05-08 03:54 33.85003 130.60012 39988 ft 404 kts 232°
2026-05-08 03:55 33.81044 130.55209 39991 ft 405 kts 232°
2026-05-08 03:55 33.77080 130.50406 39987 ft 405 kts 232°
2026-05-08 03:56 33.73112 130.45604 39992 ft 405 kts 232°
2026-05-08 03:56 33.69149 130.40813 39992 ft 404 kts 232°
2026-05-08 03:57 33.66129 130.36589 39993 ft 400 kts 237°
2026-05-08 03:57 33.62726 130.31279 39997 ft 399 kts 238°
2026-05-08 03:58 33.59390 130.25990 39992 ft 399 kts 238°
2026-05-08 03:58 33.56039 130.20686 39995 ft 399 kts 238°
2026-05-08 03:59 33.52678 130.15389 39996 ft 399 kts 238°
2026-05-08 03:59 33.49302 130.10083 40002 ft 400 kts 238°
2026-05-08 04:00 33.46096 130.05051 40006 ft 400 kts 238°
2026-05-08 04:00 33.42710 129.99745 40005 ft 400 kts 238°
2026-05-08 04:01 33.39333 129.94462 40003 ft 400 kts 238°
2026-05-08 04:01 33.35946 129.89169 40011 ft 400 kts 238°
2026-05-08 04:02 33.32561 129.83884 40013 ft 400 kts 238°
2026-05-08 04:02 33.29169 129.78599 40016 ft 400 kts 238°
2026-05-08 04:03 33.25801 129.73357 40020 ft 401 kts 238°
2026-05-08 04:03 33.20877 129.65308 40024 ft 397 kts 245°
2026-05-08 04:04 33.18563 129.59381 40024 ft 393 kts 250°
2026-05-08 04:04 33.16500 129.53349 40025 ft 393 kts 251°
2026-05-08 04:05 33.14456 129.47289 40032 ft 394 kts 251°
2026-05-08 04:05 33.12389 129.41217 40037 ft 394 kts 251°
2026-05-08 04:06 33.10311 129.35161 40037 ft 395 kts 251°
2026-05-08 04:06 33.08229 129.29111 40044 ft 395 kts 251°
2026-05-08 04:07 33.06133 129.23030 40054 ft 396 kts 251°
2026-05-08 04:07 33.04050 129.16996 40049 ft 396 kts 251°
2026-05-08 04:08 33.01937 129.10885 40055 ft 397 kts 251°
2026-05-08 04:08 32.99827 129.04796 40057 ft 398 kts 251°
2026-05-08 04:09 32.97723 128.98737 40057 ft 398 kts 251°
2026-05-08 04:09 32.95606 128.92650 40056 ft 398 kts 251°
2026-05-08 04:10 32.93475 128.86533 40055 ft 399 kts 251°
2026-05-08 04:10 32.91343 128.80427 40055 ft 399 kts 251°
2026-05-08 04:11 32.89207 128.74320 40063 ft 400 kts 251°
2026-05-08 04:11 32.87066 128.68213 40054 ft 400 kts 251°
2026-05-08 04:12 32.84915 128.62086 40060 ft 401 kts 251°
2026-05-08 04:12 32.82762 128.55965 40060 ft 401 kts 251°
2026-05-08 04:13 32.80602 128.49835 40067 ft 402 kts 251°
2026-05-08 04:13 32.78440 128.43712 40068 ft 402 kts 250°
2026-05-08 04:14 32.76268 128.37573 40075 ft 403 kts 251°
2026-05-08 04:14 32.74096 128.31445 40076 ft 403 kts 251°
2026-05-08 04:15 32.71926 128.25334 40081 ft 404 kts 251°
2026-05-08 04:15 32.69744 128.19189 40083 ft 404 kts 251°
2026-05-08 04:16 32.67555 128.13051 40089 ft 404 kts 251°
2026-05-08 04:16 32.65362 128.06915 40094 ft 404 kts 250°
2026-05-08 04:17 32.63165 128.00773 40088 ft 405 kts 251°
2026-05-08 04:17 32.60962 127.94624 40086 ft 405 kts 250°
2026-05-08 04:18 32.58755 127.88478 40090 ft 406 kts 250°
2026-05-08 04:18 32.56541 127.82322 40087 ft 406 kts 250°
2026-05-08 04:19 32.54324 127.76167 40093 ft 407 kts 250°
2026-05-08 04:19 32.52097 127.70001 40094 ft 407 kts 250°
2026-05-08 04:20 32.49866 127.63833 40100 ft 407 kts 250°
2026-05-08 04:20 32.47633 127.57669 40099 ft 407 kts 250°
2026-05-08 04:21 32.45396 127.51508 40103 ft 408 kts 250°
2026-05-08 04:21 32.43149 127.45329 40101 ft 408 kts 250°
2026-05-08 04:22 32.40903 127.39164 40103 ft 408 kts 250°
2026-05-08 04:22 32.38647 127.32983 40105 ft 409 kts 250°
2026-05-08 04:23 32.36403 127.26846 40110 ft 410 kts 250°
2026-05-08 04:23 32.34138 127.20664 40107 ft 410 kts 250°
2026-05-08 04:24 32.31868 127.14478 40113 ft 411 kts 250°
2026-05-08 04:24 32.29594 127.08295 40111 ft 411 kts 250°
2026-05-08 04:25 32.27596 127.01974 40118 ft 409 kts 257°
2026-05-08 04:25 32.26108 126.95487 40115 ft 409 kts 257°
2026-05-08 04:26 32.24691 126.88986 40118 ft 409 kts 258°
2026-05-08 04:26 32.23270 126.82479 40118 ft 409 kts 257°
2026-05-08 04:27 32.21833 126.75960 40118 ft 410 kts 257°
2026-05-08 04:27 32.20387 126.69445 40121 ft 410 kts 257°
2026-05-08 04:28 32.18939 126.62935 40123 ft 410 kts 257°
2026-05-08 04:28 32.17528 126.56409 40124 ft 410 kts 258°
2026-05-08 04:29 32.16129 126.49881 40130 ft 411 kts 258°
2026-05-08 04:29 32.14720 126.43356 40127 ft 411 kts 258°
2026-05-08 04:30 32.13301 126.36829 40132 ft 411 kts 258°
2026-05-08 04:30 32.11875 126.30295 40131 ft 411 kts 258°
2026-05-08 04:31 32.10444 126.23761 40186 ft 410 kts 258°
2026-05-08 04:31 32.09031 126.17341 40134 ft 401 kts 259°
2026-05-08 04:32 32.07648 126.11043 40138 ft 399 kts 259°
2026-05-08 04:32 32.06257 126.04718 40139 ft 399 kts 258°
2026-05-08 04:33 32.04885 125.98377 40140 ft 399 kts 259°
2026-05-08 04:33 32.03534 125.92028 40143 ft 399 kts 259°
2026-05-08 04:34 32.02177 125.85691 40142 ft 399 kts 259°
2026-05-08 04:34 32.00806 125.79340 40141 ft 400 kts 259°
2026-05-08 04:35 31.99425 125.72999 40144 ft 400 kts 259°
2026-05-08 04:35 31.98010 125.66655 40145 ft 400 kts 259°
2026-05-08 04:36 31.96594 125.60323 40151 ft 400 kts 259°
2026-05-08 04:36 31.95179 125.53989 40151 ft 400 kts 259°
2026-05-08 04:37 31.93764 125.47656 40151 ft 400 kts 259°
2026-05-08 04:37 31.92348 125.41334 40155 ft 400 kts 259°
2026-05-08 04:38 31.90923 125.34990 40155 ft 400 kts 259°
2026-05-08 04:38 31.89505 125.28691 40155 ft 400 kts 259°
2026-05-08 04:39 31.88067 125.22321 40159 ft 401 kts 259°
2026-05-08 04:39 31.86631 125.15979 40158 ft 401 kts 259°
2026-05-08 04:40 31.85196 125.09651 40161 ft 401 kts 259°
2026-05-08 04:40 31.83765 125.03364 40160 ft 401 kts 259°
2026-05-08 04:41 31.82330 124.97018 40167 ft 401 kts 259°
2026-05-08 04:41 31.80960 124.90663 40166 ft 401 kts 259°
2026-05-08 04:42 31.79600 124.84313 40167 ft 401 kts 259°
2026-05-08 04:42 31.78226 124.77956 40168 ft 401 kts 259°
2026-05-08 04:43 31.76843 124.71602 40170 ft 401 kts 259°
2026-05-08 04:43 31.75453 124.65244 40172 ft 401 kts 259°
2026-05-08 04:44 31.74064 124.58898 40172 ft 402 kts 259°
2026-05-08 04:44 31.72678 124.52587 40175 ft 402 kts 259°
2026-05-08 04:45 31.71508 124.47267 40176 ft 402 kts 259°
2026-05-08 04:45 31.69880 124.39885 40176 ft 402 kts 259°
2026-05-08 04:46 31.68703 124.34566 40176 ft 402 kts 259°
2026-05-08 04:46 31.67297 124.28219 40175 ft 402 kts 259°
2026-05-08 04:47 31.65885 124.21864 40182 ft 402 kts 259°
2026-05-08 04:47 31.64479 124.15556 40180 ft 402 kts 259°
2026-05-08 04:48 31.63434 124.10874 40179 ft 402 kts 259°
2026-05-08 04:48 31.62141 124.05095 40180 ft 402 kts 259°
2026-05-08 04:49 31.60719 123.98750 40185 ft 402 kts 259°
2026-05-08 04:49 31.59324 123.92398 40185 ft 402 kts 259°
2026-05-08 04:50 31.57941 123.86025 40185 ft 402 kts 259°
2026-05-08 04:50 31.56554 123.79674 40187 ft 402 kts 259°
2026-05-08 04:51 31.55169 123.73370 40189 ft 402 kts 259°
2026-05-08 04:51 31.54524 123.70446 40033 ft 398 kts 259°
2026-05-08 04:51 31.53830 123.67304 39453 ft 398 kts 259°
2026-05-08 04:52 31.53137 123.64168 38824 ft 399 kts 259°
2026-05-08 04:52 31.52442 123.61015 38009 ft 400 kts 259°
2026-05-08 04:52 31.51741 123.57832 37051 ft 406 kts 258°
2026-05-08 04:52 31.51029 123.54601 36055 ft 413 kts 258°
2026-05-08 04:53 31.50303 123.51314 35068 ft 421 kts 258°
2026-05-08 04:53 31.49573 123.47969 34159 ft 426 kts 258°
2026-05-08 04:53 31.48926 123.44566 33360 ft 427 kts 259°
2026-05-08 04:53 31.48305 123.41192 32757 ft 423 kts 259°
2026-05-08 04:54 31.47688 123.37873 32205 ft 419 kts 259°
2026-05-08 04:54 31.47065 123.34558 31636 ft 416 kts 258°
2026-05-08 04:54 31.46432 123.31215 31072 ft 413 kts 258°
2026-05-08 04:54 31.45818 123.27979 30539 ft 410 kts 258°
2026-05-08 04:55 31.45197 123.24723 29941 ft 407 kts 258°
2026-05-08 04:55 31.44584 123.21514 28842 ft 399 kts 258°
2026-05-08 04:55 31.43972 123.18316 27622 ft 401 kts 258°
2026-05-08 04:55 31.43371 123.15187 26723 ft 387 kts 258°
2026-05-08 04:56 31.42787 123.12145 25888 ft 381 kts 258°
2026-05-08 04:56 31.42209 123.09135 25082 ft 377 kts 258°
2026-05-08 04:56 31.41638 123.06167 24217 ft 372 kts 258°
2026-05-08 04:56 31.41071 123.03226 23243 ft 367 kts 258°
2026-05-08 04:57 31.40513 123.00339 22211 ft 362 kts 258°
2026-05-08 04:57 31.39960 122.97479 21218 ft 358 kts 258°
2026-05-08 04:57 31.39413 122.94655 20133 ft 352 kts 258°
2026-05-08 04:57 31.38875 122.91875 19242 ft 349 kts 259°
2026-05-08 04:58 31.38342 122.89132 18145 ft 343 kts 259°
2026-05-08 04:58 31.37828 122.86489 17585 ft 324 kts 259°
2026-05-08 04:58 31.37335 122.83959 17120 ft 322 kts 259°
2026-05-08 04:58 31.36834 122.81402 16619 ft 323 kts 259°
2026-05-08 04:59 31.36132 122.78906 16113 ft 326 kts 249°
2026-05-08 04:59 31.34944 122.76639 15710 ft 331 kts 234°
2026-05-08 04:59 31.33272 122.74692 15590 ft 352 kts 224°
2026-05-08 04:59 31.31569 122.73037 15478 ft 358 kts 223°
2026-05-08 05:00 31.29641 122.71186 15129 ft 358 kts 223°
2026-05-08 05:00 31.27724 122.69334 14813 ft 356 kts 223°
2026-05-08 05:00 31.25820 122.67488 14572 ft 357 kts 223°
2026-05-08 05:00 31.23912 122.65635 14322 ft 358 kts 223°
2026-05-08 05:01 31.22000 122.63776 14079 ft 358 kts 223°
2026-05-08 05:01 31.20085 122.61916 13798 ft 357 kts 223°
2026-05-08 05:01 31.18176 122.60062 13555 ft 357 kts 223°
2026-05-08 05:01 31.16274 122.58216 13312 ft 356 kts 223°
2026-05-08 05:02 31.14371 122.56369 13053 ft 354 kts 223°
2026-05-08 05:02 31.12478 122.54533 12820 ft 353 kts 223°
2026-05-08 05:02 31.10595 122.52707 12578 ft 352 kts 223°
2026-05-08 05:02 31.08744 122.50911 12334 ft 351 kts 223°
2026-05-08 05:03 31.06863 122.49089 12093 ft 350 kts 223°
2026-05-08 05:03 31.04997 122.47282 11849 ft 349 kts 222°
2026-05-08 05:03 31.03107 122.45454 11522 ft 348 kts 222°
2026-05-08 05:03 31.01294 122.43700 11274 ft 337 kts 222°
2026-05-08 05:04 30.99665 122.41836 11035 ft 322 kts 234°
2026-05-08 05:04 30.98395 122.39750 10822 ft 309 kts 239°
2026-05-08 05:04 30.97224 122.37694 10588 ft 300 kts 239°
2026-05-08 05:04 30.96095 122.35722 10306 ft 283 kts 239°
2026-05-08 05:05 30.95123 122.33800 9725 ft 270 kts 250°
2026-05-08 05:05 30.94793 122.31701 8939 ft 262 kts 276°
2026-05-08 05:05 30.95320 122.29715 8314 ft 251 kts 304°
2026-05-08 05:05 30.96415 122.28157 8046 ft 250 kts 316°
2026-05-08 05:06 30.97629 122.26709 7794 ft 250 kts 316°
2026-05-08 05:06 30.98833 122.25274 7552 ft 249 kts 316°
2026-05-08 05:06 30.99951 122.23685 7531 ft 263 kts 304°
2026-05-08 05:06 31.00651 122.21667 7248 ft 272 kts 283°
2026-05-08 05:07 31.00411 122.19329 6906 ft 276 kts 248°
2026-05-08 05:07 30.99232 122.17639 6707 ft 272 kts 216°
2026-05-08 05:07 30.97551 122.16684 6539 ft 265 kts 202°
2026-05-08 05:07 30.95851 122.15910 6284 ft 261 kts 202°
2026-05-08 05:08 30.94175 122.15120 5994 ft 259 kts 202°
2026-05-08 05:08 30.92519 122.14313 5684 ft 257 kts 202°
2026-05-08 05:08 30.90877 122.13496 5355 ft 256 kts 202°
2026-05-08 05:08 30.89240 122.12673 5028 ft 256 kts 202°
2026-05-08 05:09 30.87643 122.11755 4640 ft 258 kts 213°
2026-05-08 05:09 30.86393 122.10306 4395 ft 251 kts 239°
2026-05-08 05:09 30.85817 122.08447 4255 ft 239 kts 262°
2026-05-08 05:09 30.85552 122.06578 4120 ft 230 kts 264°
2026-05-08 05:10 30.85326 122.04772 3995 ft 222 kts 265°
2026-05-08 05:10 30.84894 122.01326 3716 ft 209 kts 264°
2026-05-08 05:10 30.84684 121.99673 3546 ft 204 kts 264°
2026-05-08 05:11 30.84477 121.98045 3330 ft 203 kts 264°
2026-05-08 05:11 30.84274 121.96452 3117 ft 199 kts 265°
2026-05-08 05:11 30.84072 121.94876 3012 ft 198 kts 264°
2026-05-08 05:11 30.83870 121.93287 3004 ft 199 kts 264°
2026-05-08 05:12 30.83781 121.91684 2990 ft 198 kts 281°
2026-05-08 05:12 30.84445 121.90377 2998 ft 186 kts 327°
2026-05-08 05:12 30.85549 121.89697 3022 ft 181 kts 343°
2026-05-08 05:12 30.86731 121.89224 2993 ft 180 kts 346°
2026-05-08 05:13 30.87916 121.88760 3027 ft 181 kts 346°
2026-05-08 05:13 30.89099 121.88303 3024 ft 181 kts 345°
2026-05-08 05:13 30.90306 121.87839 2963 ft 180 kts 347°
2026-05-08 05:13 30.91495 121.87389 3004 ft 181 kts 346°
2026-05-08 05:14 30.92696 121.86940 2994 ft 181 kts 346°
2026-05-08 05:14 30.93892 121.86491 2994 ft 181 kts 346°
2026-05-08 05:14 30.95071 121.86045 2989 ft 172 kts 346°
2026-05-08 05:14 30.96168 121.85626 3028 ft 161 kts 345°
2026-05-08 05:15 30.97229 121.85224 3031 ft 159 kts 346°
2026-05-08 05:15 30.98290 121.84822 2972 ft 162 kts 346°
2026-05-08 05:15 30.99361 121.84421 2787 ft 161 kts 346°
2026-05-08 05:15 31.00420 121.84022 2552 ft 160 kts 346°
2026-05-08 05:16 31.01471 121.83630 2355 ft 157 kts 345°
2026-05-08 05:16 31.02512 121.83236 2139 ft 156 kts 344°
2026-05-08 05:16 31.03543 121.82843 1922 ft 155 kts 344°
2026-05-08 05:16 31.04550 121.82465 1716 ft 149 kts 344°
2026-05-08 05:17 31.05524 121.82097 1495 ft 143 kts 345°
2026-05-08 05:17 31.06448 121.81746 1313 ft 137 kts 345°
2026-05-08 05:17 31.07328 121.81413 1120 ft 128 kts 345°
2026-05-08 05:17 31.08162 121.81100 962 ft 127 kts 346°
2026-05-08 05:18 31.09001 121.80786 753 ft 126 kts 346°
2026-05-08 05:18 31.09836 121.80476 592 ft 127 kts 344°
2026-05-08 05:18 31.10672 121.80153 428 ft 127 kts 343°
2026-05-08 05:18 31.11511 121.79826 256 ft 128 kts 345°
2026-05-08 05:19 31.12358 121.79506 119 ft 128 kts 344°
2026-05-08 05:19 31.13191 121.79195 32 ft 122 kts 343°
2026-05-08 05:19 31.13775 121.78980 28 ft 52 kts 342°
2026-05-08 05:19 31.13978 121.78904 27 ft 27 kts 342°
2026-05-08 05:20 31.14159 121.78870 28 ft 26 kts
2026-05-08 05:20 31.14296 121.78893 29 ft 13 kts 10°
2026-05-08 05:20 31.14328 121.78942 29 ft 7 kts 98°
2026-05-08 05:20 31.14283 121.78992 29 ft 14 kts 152°
2026-05-08 05:21 31.14179 121.79036 28 ft 18 kts 162°
2026-05-08 05:21 31.14048 121.79085 28 ft 22 kts 162°
2026-05-08 05:21 31.13893 121.79144 28 ft 25 kts 162°
2026-05-08 05:21 31.13719 121.79210 29 ft 25 kts 162°
2026-05-08 05:22 31.13629 121.79246 29 ft 12 kts 151°
2026-05-08 05:22 31.13612 121.79339 29 ft 14 kts 73°
2026-05-08 05:22 31.13646 121.79459 28 ft 17 kts 71°
2026-05-08 05:22 31.13683 121.79590 29 ft 11 kts 72°
2026-05-08 05:23 31.13708 121.79686 29 ft 14 kts 73°
2026-05-08 05:23 31.13742 121.79808 29 ft 17 kts 71°
2026-05-08 05:23 31.13779 121.79936 29 ft 12 kts 71°
2026-05-08 05:23 31.13788 121.79968 29 ft 0 kts 71°
2026-05-08 05:24 31.13789 121.79971 29 ft 1 kts 71°
2026-05-08 05:24 31.13791 121.79995 29 ft 5 kts 90°
2026-05-08 05:24 31.13765 121.80037 29 ft 9 kts 142°
2026-05-08 05:25 31.13694 121.80072 29 ft 13 kts 161°
2026-05-08 05:25 31.13654 121.80092 29 ft 3 kts 131°
2026-05-08 05:25 31.13649 121.80117 29 ft 4 kts 91°
2026-05-08 05:25 31.13658 121.80154 29 ft 6 kts 71°
2026-05-08 05:26 31.13665 121.80179 29 ft 2 kts 71°
2026-05-08 05:26 31.13669 121.80194 29 ft 2 kts 72°
2026-05-08 05:26 31.13669 121.80195 29 ft 0 kts 72°
2026-05-08 05:26 31.13670 121.80198 29 ft 0 kts 72°